RH
89 90 90 90 91 90 90 91 93 94 93 91 94 94 94 97 88 78 66 56 60 70 70 61 64 52 48 55 58 56 71 69 53 41 24 16 14 10 8 18 29 32 40 56 83
94 94 92 89 93 93 94 95 95 94 93 93 95 94 95 92 86 67 78 76 75 72 72 60 55 52 58 56 66 75 78 63 39 30 26 19 16 12 25 29 36 41 71 82 78
95 96 94 93 96 96 96 96 97 96 95 93 95 89 67 79 72 65 81 71 89 90 73 62 52 52 62 54 60 67 81 53 35 31 26 26 20 21 29 35 38 45 86 78 73
94 96 96 96 96 97 97 94 93 94 95 95 94 85 72 83 79 76 56 58 59 75 76 70 61 71 76 74 53 76 59 52 45 33 28 31 25 24 27 30 30 36 69 74 74
96 95 96 97 96 96 94 86 81 94 95 96 96 94 80 69 57 72 64 68 68 65 65 62 62 65 80 60 56 68 61 50 42 36 35 31 32 29 28 31 30 42 63 71 72
95 94 98 99 97 97 95 95 93 92 92 94 96 91 82 90 64 71 68 68 67 65 60 59 62 58 65 62 64 53 56 59 53 50 33 36 33 29 28 34 36 50 60 64 66
97 95 100 99 98 97 100 98 96 86 75 79 93 88 69 70 61 65 70 69 71 70 62 56 54 65 62 71 59 61 74 63 58 58 46 34 39 36 27 33 43 51 55 60 57
96 96 100 99 100 97 100 98 81 64 61 81 81 80 80 54 59 60 70 70 73 77 74 63 62 68 70 63 69 73 73 88 59 60 60 42 53 31 30 38 46 50 54 56 53
94 98 100 99 98 100 100 81 58 60 60 69 78 73 70 56 63 55 69 84 88 81 84 74 66 70 74 89 96 89 91 82 68 59 64 54 46 32 38 40 48 49 52 54 52
98 99 97 99 94 99 93 59 56 62 63 63 62 67 57 52 52 67 75 93 95 74 85 85 79 82 85 92 89 80 88 69 70 57 53 61 40 32 42 42 46 48 52 53 53
98 98 97 96 94 100 79 72 65 68 56 55 52 56 52 51 56 74 80 80 88 77 89 82 90 89 83 76 71 68 71 72 62 51 74 64 38 39 44 45 47 48 54 55 54
93 96 97 100 99 77 82 58 69 70 75 47 52 52 49 58 68 76 78 87 84 84 71 92 94 67 63 65 74 77 87 88 66 58 70 51 39 35 44 46 44 47 54 55 53
98 93 98 98 91 85 63 71 76 71 77 66 47 56 56 60 65 59 76 83 90 95 80 98 80 88 76 91 99 96 96 83 78 65 64 36 41 40 44 42 40 42 47 50 53
96 99 99 98 90 62 62 78 80 75 95 94 59 64 55 56 69 47 61 73 93 93 97 99 89 93 96 100 97 100 79 87 95 60 68 32 65 66 50 48 42 42 46 50 52
98 100 99 100 93 62 77 73 73 73 93 69 59 57 57 63 53 56 50 64 78 88 95 97 96 94 99 92 92 94 57 70 72 48 47 37 63 54 49 52 46 46 46 48 47
98 99 98 90 81 73 74 72 71 94 83 85 61 66 57 43 43 42 50 62 60 78 78 88 83 90 86 63 74 71 54 76 70 57 71 43 43 61 55 49 46 43 42 42 44
100 99 99 87 73 78 73 68 97 87 55 69 68 64 63 54 51 47 57 72 77 97 99 91 94 68 75 73 66 69 66 98 99 88 85 44 45 42 42 39 37 40 40 40 41
98 98 96 87 81 80 70 80 90 65 56 49 65 62 68 56 50 53 61 70 59 63 88 98 97 73 55 61 54 51 57 87 75 86 88 51 59 36 46 38 32 33 34 37 41
98 89 85 87 86 80 78 85 85 55 48 54 52 68 65 57 59 57 55 52 46 47 74 99 80 48 42 40 41 43 78 49 69 71 86 67 39 33 45 42 35 34 36 42 40
89 76 76 88 86 78 81 82 54 44 49 53 63 44 52 45 61 49 45 44 49 43 42 51 82 47 40 40 38 41 43 70 84 96 76 74 45 76 54 50 40 48 47 45 48
89 72 94 91 84 78 88 79 47 43 47 54 54 52 48 47 47 47 43 42 46 50 47 46 54 59 45 53 58 46 50 49 56 63 92 63 52 34 48 49 51 49 48 52 63
73 86 92 86 88 76 89 49 51 45 46 53 53 55 54 49 50 48 47 46 48 50 58 40 52 69 55 46 44 47 40 49 68 58 71 44 50 38 37 47 48 47 51 59 63
74 81 95 80 95 81 50 48 49 49 50 51 54 48 47 51 58 46 47 50 49 51 59 55 54 80 57 51 45 47 40 38 38 46 56 54 45 40 38 46 44 54 57 60 61
70 88 88 81 77 75 54 42 49 51 52 46 50 46 51 52 44 54 51 49 51 50 60 58 55 51 80 82 54 46 43 37 39 73 43 32 38 49 41 47 51 54 58 61 50
68 67 62 89 71 63 47 45 46 47 54 45 51 50 51 54 48 46 45 48 57 52 56 52 68 58 50 46 46 48 41 40 40 44 41 36 33 35 46 46 50 53 55 51 44
77 62 55 47 39 46 51 47 48 42 42 47 56 46 42 51 48 57 52 49 50 52 47 51 70 55 61 44 44 47 41 36 38 40 38 33 30 35 37 43 47 52 51 46 40
59 52 56 40 44 44 45 44 38 38 38 40 42 43 45 49 52 51 52 52 51 58 52 52 61 73 69 40 45 53 41 38 37 36 33 32 30 29 39 42 46 48 46 44 38
Wind_Speed
7 8 8 9 10 10 10 11 13 14 15 18 19 16 15 15 14 11 10 9 7 9 12 14 13 10 14 9 11 8 9 13 17 17 14 18 11 9 2 2 2 5 5 18 34
7 8 8 9 10 10 10 11 13 14 15 17 17 18 17 15 13 15 7 4 7 12 10 12 10 14 9 8 6 8 8 17 13 16 15 20 18 10 3 3 2 8 21 30 31
7 8 9 10 10 9 10 12 13 14 14 15 17 18 13 8 10 1 1 3 5 7 11 15 17 13 12 12 14 9 18 14 15 21 18 14 14 10 10 8 8 10 20 20 23
8 9 9 10 10 10 11 12 13 15 16 16 15 14 9 6 5 3 1 4 7 7 8 9 9 11 6 11 15 15 17 17 20 20 13 9 11 10 7 7 5 15 22 18 19
9 10 10 11 11 12 13 13 14 16 16 16 13 12 8 5 8 3 3 6 10 9 10 11 12 11 11 7 12 17 20 18 16 23 18 16 10 11 18 5 5 21 22 19 17
9 10 11 12 13 14 16 17 17 17 17 14 10 8 5 9 1 2 6 9 10 11 15 13 11 12 10 15 15 9 14 16 18 21 17 19 13 7 13 8 7 20 19 18 18
10 12 12 13 14 15 16 17 18 17 16 11 8 5 9 13 5 5 8 11 10 13 17 18 16 10 6 6 7 9 13 13 15 15 18 16 17 13 13 4 15 15 16 16 16
11 12 13 14 15 17 18 19 16 15 14 9 6 5 5 12 9 11 10 13 14 14 20 20 12 13 15 3 2 1 3 6 10 13 17 16 17 9 11 8 11 12 14 15 14
12 13 13 14 15 17 18 17 16 12 8 7 4 6 6 4 4 9 11 8 12 13 12 15 11 7 2 4 1 3 5 8 13 16 11 19 14 21 10 11 10 12 14 15 13
12 12 13 14 15 17 18 13 8 7 5 6 8 5 5 9 13 6 8 10 3 4 3 5 4 5 4 5 9 6 6 8 12 6 21 23 19 19 17 17 14 13 14 14 14
12 11 12 14 14 15 14 5 2 4 9 5 6 8 10 15 10 1 3 7 3 4 5 6 5 10 11 10 10 10 11 13 14 12 14 27 21 11 9 9 14 14 14 13 14
11 11 11 13 13 8 5 4 3 2 6 8 7 10 9 2 6 4 2 2 4 6 7 3 10 12 8 9 12 14 16 20 17 16 15 24 20 13 11 11 13 15 15 15 14
10 10 10 11 9 3 3 3 1 5 4 5 5 5 4 2 6 4 5 5 1 3 10 8 3 3 17 10 11 13 15 14 13 15 24 18 18 13 10 8 11 14 14 14 16
10 8 9 9 4 3 1 1 2 5 2 5 3 1 3 4 5 5 6 3 1 3 6 6 5 9 11 8 10 9 17 22 15 16 7 14 6 10 11 10 10 14 15 16 16
9 7 6 3 4 3 1 2 2 4 3 6 2 1 5 7 8 6 7 4 5 4 3 2 3 6 11 8 12 9 5 12 14 12 6 10 5 9 13 12 12 9 13 15 15
7 5 4 1 1 2 1 1 1 1 3 5 1 5 7 4 4 4 5 4 0 5 8 4 3 3 3 8 15 13 6 3 3 7 6 8 11 12 16 20 11 8 10 13 13
7 4 4 1 3 1 0 3 2 2 3 5 3 4 10 5 6 3 4 5 3 5 2 3 4 2 2 4 10 12 9 2 3 1 4 6 11 6 16 20 17 17 11 10 11
3 3 2 2 2 1 3 2 2 2 3 2 3 8 5 6 3 4 4 4 5 4 3 3 1 2 8 6 4 6 3 1 2 4 3 5 6 3 4 7 20 20 17 11 11
3 3 3 1 2 1 3 2 3 2 1 5 8 4 5 3 2 5 8 3 2 5 4 4 3 4 3 3 4 1 3 4 4 2 3 4 2 3 5 8 5 18 15 12 11
2 5 5 3 3 2 3 4 2 1 1 2 4 1 6 5 2 4 3 4 5 3 4 4 4 1 2 2 3 2 5 3 3 4 5 4 5 5 6 6 3 9 12 10 9
2 3 2 4 3 3 3 4 2 5 3 2 5 5 8 7 5 7 3 1 5 5 5 6 4 3 2 2 3 2 1 2 1 1 1 4 4 5 8 11 11 7 8 10 10
3 2 5 4 3 4 3 3 2 4 5 4 3 7 7 8 6 4 4 5 5 5 5 2 4 3 0 3 2 2 2 2 1 5 4 3 1 5 3 9 10 9 10 9 9
2 3 2 3 3 5 4 3 4 4 5 3 4 5 6 4 4 5 4 4 3 3 5 6 3 3 2 1 2 2 3 3 5 5 4 2 0 3 5 9 9 10 10 9 10
2 2 2 3 4 4 5 6 6 5 5 4 7 6 6 7 7 5 6 1 1 2 1 3 4 2 2 7 3 1 4 2 4 2 7 6 3 5 2 8 9 10 9 9 9
3 3 2 3 6 9 5 6 5 4 4 2 4 8 8 4 7 6 4 4 4 2 3 1 3 5 5 6 3 3 2 4 3 6 3 6 7 1 9 7 9 9 9 10 9
2 2 2 4 1 5 6 4 6 6 2 5 6 8 4 6 7 4 5 3 3 3 2 1 3 4 4 4 5 4 5 5 3 5 6 4 5 6 7 8 7 9 10 11 10
2 1 0 3 5 4 5 7 1 1 3 4 4 5 7 3 5 5 4 4 3 4 2 2 2 3 3 2 5 6 7 7 4 5 3 2 2 3 6 7 8 9 9 10 11
Wind_Direction
358 356 349 338 336 337 340 337 335 334 335 336 336 330 320 314 310 290 271 266 306 311 297 288 298 258 235 246 268 281 243 248 246 258 257 276 241 246 181 233 75 69 51 126 149
344 342 335 331 329 333 336 337 335 335 335 335 337 330 317 310 305 285 321 347 314 291 285 263 256 273 221 219 233 222 234 243 263 257 263 273 275 246 127 196 102 77 90 120 140
332 328 329 328 328 330 337 335 335 333 327 333 338 333 329 316 279 108 37 345 342 304 265 266 274 272 275 246 225 248 241 255 246 263 272 307 306 325 156 221 162 156 135 141 150
331 324 326 323 324 331 328 326 326 329 327 316 321 334 336 282 306 147 285 347 336 326 273 259 260 260 259 245 233 258 258 250 263 271 279 286 314 293 263 203 213 158 151 152 164
328 327 321 319 319 316 314 313 315 319 319 316 310 320 333 256 273 201 359 330 320 278 258 238 240 237 240 248 248 242 252 259 265 262 270 285 278 281 296 125 316 143 148 161 169
320 319 319 320 316 311 308 305 304 310 315 313 301 314 283 271 137 148 319 323 309 281 266 249 235 235 273 244 261 275 251 258 273 275 254 265 273 273 287 126 113 145 156 164 173
317 317 316 316 312 307 306 300 298 306 309 304 287 300 280 262 272 282 294 288 284 280 271 254 246 227 206 243 270 270 268 278 270 273 278 256 269 247 258 171 148 156 159 165 174
313 313 316 316 314 308 304 300 302 304 300 290 278 289 255 284 262 289 292 287 284 270 262 257 251 245 234 318 180 317 293 264 256 269 278 250 260 262 226 174 158 162 166 168 168
311 313 316 319 318 314 305 304 306 304 276 280 246 212 272 253 243 324 311 277 293 273 259 239 223 216 203 196 122 168 246 233 264 235 253 277 239 252 174 174 178 173 170 166 156
305 312 317 321 322 318 312 317 315 276 253 222 245 276 226 302 336 314 323 311 272 274 85 234 217 196 212 179 218 199 218 238 242 226 224 267 228 274 171 174 180 176 168 166 157
305 311 317 322 322 319 335 354 237 200 232 259 306 276 294 316 304 140 350 331 234 211 204 203 206 212 207 212 256 294 290 269 258 257 255 240 220 213 198 192 173 173 168 163 157
306 313 320 320 320 331 343 324 52 324 302 280 253 267 280 345 297 175 97 355 301 204 200 186 239 230 234 227 243 240 246 246 277 265 267 232 230 211 187 203 177 166 167 164 158
306 313 317 321 325 338 342 40 331 317 267 285 260 284 305 322 277 301 188 157 227 274 231 232 193 327 244 217 227 231 236 247 247 277 238 188 225 203 177 203 176 170 169 163 163
305 308 315 322 346 327 102 293 324 303 327 282 199 178 269 260 263 202 194 243 227 234 244 258 224 242 217 216 203 251 246 236 217 205 184 192 207 182 165 192 180 166 165 162 167
303 304 303 320 311 292 57 322 322 260 335 278 5 94 257 272 299 195 192 203 303 260 194 258 238 246 239 225 188 236 336 187 243 197 191 209 204 194 164 190 181 171 161 160 165
308 292 294 7 215 292 11 310 269 261 279 324 331 323 306 295 289 277 219 210 268 282 234 277 198 238 282 262 200 256 295 52 259 235 195 201 206 192 177 187 170 170 167 164 161
311 257 210 323 11 338 341 237 295 284 44 309 313 330 316 294 313 296 309 282 278 317 7 278 308 278 271 268 216 248 272 197 168 71 205 232 207 271 176 177 174 175 179 166 148
296 190 232 213 297 166 252 252 285 252 246 130 223 294 284 339 333 287 268 267 171 249 295 299 302 217 198 223 309 208 224 153 201 169 189 293 215 347 18 82 173 173 171 150 150
129 133 203 179 166 155 261 270 215 264 8 318 303 262 292 205 222 311 262 327 12 7 354 335 347 189 244 325 326 186 37 3 330 44 106 208 87 27 46 47 41 156 149 150 146
226 196 140 229 158 238 255 251 248 207 275 238 283 317 326 358 211 279 330 74 357 24 358 295 309 7 342 277 209 359 102 292 285 181 209 220 174 200 173 157 132 109 127 128 122
212 228 103 159 136 229 242 252 302 183 223 257 312 299 325 346 319 306 300 49 26 339 311 283 216 284 263 37 27 1 315 272 209 126 294 146 227 329 183 170 157 147 131 130 125
270 234 139 146 222 233 234 230 355 244 186 262 270 266 273 328 307 312 334 349 21 314 304 76 297 282 54 151 172 231 109 70 288 336 269 229 5 7 59 145 141 151 133 126 128
235 109 126 195 233 217 214 240 243 223 212 222 250 233 315 297 317 330 353 94 356 312 360 344 290 313 279 236 197 241 148 206 249 272 262 351 325 63 351 120 134 131 135 135 129
278 195 134 214 273 279 291 262 222 176 280 249 270 295 275 268 247 269 301 99 63 285 317 294 283 260 241 258 291 167 192 189 302 330 326 15 110 135 206 146 131 137 137 131 133
224 244 113 195 223 224 275 302 240 217 213 235 264 238 278 293 314 266 353 280 181 206 254 72 285 9 299 247 295 272 328 170 238 264 359 325 354 124 172 169 145 136 132 137 142
257 245 141 289 90 237 220 256 232 241 167 214 225 298 291 274 278 335 351 313 8 178 293 250 285 318 278 196 263 279 260 242 217 305 299 299 326 89 131 134 128 148 150 152 152
204 161 75 285 183 213 225 213 166 259 210 290 344 321 280 307 355 323 288 292 282 315 215 271 314 353 298 303 303 293 222 193 164 216 218 259 58 69 123 148 166 162 157 159 157